Track STARLINK-1371 now! 10-day predictions STARLINK-1371 is classified as:
1 45542U 20025M 21109.44605497 .00001338 00000-0 10875-3 0 9990 2 45542 53.0585 200.8892 0000963 124.8763 235.2317 15.06385909 55421